Temperature
7 7 7 7 7 6 6 6 5 5 5 5 5 6 6 6 6 6 6 6 5 5 5 5 5 5 5 5 5 5 5 5 5 5 4 4 4 4
6 6 6 6 6 6 6 5 5 5 5 5 5 5 5 5 5 5 5 5 5 5 5 5 5 4 4 4 4 4 4 4 4 4 4 4 4 4
6 6 5 5 6 5 5 5 5 4 4 4 5 5 4 5 5 4 4 4 4 4 4 4 4 4 4 4 4 4 4 4 4 3 3 3 3 3
5 5 5 5 5 5 5 4 4 4 4 4 4 4 4 4 4 4 4 3 3 4 3 3 3 3 3 3 3 3 3 3 3 3 3 3 3 3
5 5 5 4 4 4 4 4 4 4 3 3 3 3 3 3 3 3 3 3 3 3 3 3 3 3 3 3 2 2 2 2 2 2 2 2 2 2
4 4 4 4 4 4 3 3 3 3 3 3 3 3 3 3 2 2 2 2 2 2 2 2 2 2 2 2 2 2 2 2 2 2 2 1 2 1
4 4 3 3 3 3 3 3 2 2 2 2 2 2 2 2 2 2 1 1 1 1 1 1 1 2 2 2 2 2 1 1 1 1 1 1 1 1
3 3 3 3 2 2 2 2 2 2 2 2 2 1 2 1 1 1 1 0 0 1 1 1 1 1 1 1 1 1 1 1 1 0 0 0 0 0
3 2 2 2 2 2 2 2 2 1 1 1 1 1 1 1 0 0 -0 -0 -0 -0 -0 -0 0 0 0 0 0 0 0 -0 -0 -0 -0 -0 -0 -0
2 2 2 2 2 1 1 1 1 1 1 1 0 0 0 0 -0 -0 -1 -1 -1 -1 -1 -1 -0 -0 -0 0 -0 -0 -0 -1 -1 -1 -1 -1 -1 -1
2 2 1 1 1 1 1 1 1 1 0 0 -0 -0 -0 -0 -1 -1 -1 -1 -1 -1 -1 -1 -1 -1 -1 -1 -1 -1 -1 -1 -1 -1 -2 -2 -2 -2
1 1 1 1 1 0 0 0 0 0 -0 -0 -0 -0 -1 -1 -1 -1 -1 -2 -2 -2 -2 -2 -2 -2 -2 -2 -1 -1 -2 -2 -2 -2 -2 -2 -2 -3
0 0 0 0 -0 -0 -0 -1 -0 -1 -1 -1 -1 -1 -1 -1 -1 -2 -2 -2 -2 -2 -2 -3 -3 -3 -3 -3 -2 -2 -2 -2 -3 -3 -3 -3 -3 -3
-0 -0 -0 -1 -1 -1 -1 -1 -1 -1 -1 -1 -2 -2 -2 -2 -2 -2 -2 -2 -3 -3 -3 -3 -3 -3 -4 -4 -3 -3 -3 -3 -3 -3 -3 -3 -3 -3
-1 -1 -1 -1 -1 -1 -1 -1 -2 -2 -2 -2 -2 -2 -2 -2 -2 -3 -3 -3 -3 -3 -3 -3 -4 -4 -4 -4 -4 -4 -4 -4 -4 -4 -4 -4 -4 -4
-1 -1 -1 -1 -2 -2 -2 -2 -2 -2 -3 -3 -3 -3 -3 -3 -3 -3 -3 -3 -3 -3 -3 -4 -4 -4 -4 -4 -5 -4 -4 -5 -4 -5 -5 -4 -4 -4
-2 -2 -2 -2 -2 -2 -2 -2 -3 -3 -3 -3 -3 -3 -3 -3 -3 -4 -4 -4 -4 -4 -4 -4 -4 -5 -5 -5 -5 -5 -5 -5 -5 -5 -5 -5 -5 -5
-2 -2 -2 -2 -2 -3 -3 -3 -3 -3 -3 -4 -4 -4 -4 -4 -4 -4 -4 -4 -4 -4 -4 -5 -5 -5 -5 -5 -5 -5 -5 -5 -5 -5 -6 -6 -5 -5
-3 -3 -3 -3 -3 -3 -3 -4 -4 -4 -4 -4 -4 -4 -4 -4 -4 -4 -5 -5 -5 -5 -5 -5 -5 -6 -6 -6 -5 -5 -6 -6 -6 -6 -6 -6 -6 -5
-3 -3 -3 -3 -4 -4 -4 -4 -4 -4 -4 -4 -4 -4 -4 -5 -5 -5 -5 -5 -5 -6 -6 -6 -6 -6 -6 -6 -6 -6 -6 -6 -6 -6 -6 -6 -6 -6
-3 -4 -4 -4 -4 -4 -4 -4 -5 -5 -5 -5 -5 -5 -5 -5 -5 -5 -5 -6 -6 -6 -6 -6 -6 -6 -7 -7 -7 -6 -6 -6 -6 -7 -7 -7 -6 -6
-4 -4 -4 -5 -5 -5 -5 -5 -5 -5 -5 -5 -5 -5 -5 -6 -6 -6 -6 -6 -6 -6 -6 -6 -6 -7 -7 -7 -7 -7 -6 -6 -6 -6 -6 -7 -7 -7
-5 -5 -5 -5 -5 -5 -5 -5 -5 -5 -5 -6 -6 -6 -6 -6 -6 -6 -6 -6 -6 -7 -7 -7 -7 -7 -7 -7 -7 -7 -7 -7 -7 -7 -6 -6 -7 -7
Wind_Speed
2 2 1 1 1 0 1 2 2 3 3 3 2 2 2 3 5 5 6 8 9 10 10 11 11 11 11 11 11 12 12 12 12 12 12 12 12 12
2 3 2 1 1 1 1 2 2 3 4 2 2 2 3 5 7 7 7 9 10 11 12 12 13 13 12 12 12 12 12 12 12 13 13 13 13 12
3 4 3 2 2 2 2 2 2 2 4 4 2 2 2 3 5 7 8 8 9 11 13 13 14 14 13 13 13 13 13 13 13 13 14 14 14 13
3 3 4 3 3 2 2 3 3 3 3 5 4 3 3 4 4 5 7 9 9 11 13 14 14 14 14 13 14 14 14 13 13 14 14 14 14 14
4 4 4 3 3 3 3 3 3 3 3 4 5 3 3 3 4 5 5 5 8 10 11 13 14 14 14 14 14 14 14 13 13 13 13 13 14 14
4 4 4 5 5 4 4 4 3 3 3 3 4 4 4 4 3 4 5 4 5 7 10 12 13 13 14 15 14 13 13 13 13 13 13 13 13 14
3 4 4 5 6 5 5 4 4 4 3 4 5 4 4 4 4 4 5 5 5 4 4 6 7 8 10 12 12 13 13 13 13 13 13 13 14 14
5 4 4 5 6 8 8 8 7 6 5 5 5 6 7 5 4 4 5 5 6 3 3 6 5 5 6 9 12 14 14 14 13 13 13 14 14 15
5 5 5 5 6 5 7 8 9 11 11 8 7 8 7 6 5 6 6 7 8 5 4 7 4 6 6 10 13 14 13 13 12 13 13 14 14 14
5 5 6 5 6 6 5 6 6 7 8 7 7 7 7 6 6 6 7 7 7 5 3 6 6 6 7 8 12 13 13 12 13 13 14 14 15 15
5 5 6 6 8 9 6 6 6 7 9 11 12 11 12 12 9 5 5 5 7 6 3 4 5 5 5 5 8 11 12 12 13 14 14 15 15 15
4 5 8 9 10 9 6 6 7 7 5 6 7 8 8 10 11 7 5 6 6 6 3 3 4 3 4 3 4 6 7 11 13 14 14 15 14 10
4 4 5 9 10 10 8 6 9 8 5 5 5 5 5 5 5 6 6 6 7 7 3 2 3 3 4 5 4 5 5 6 8 10 13 14 14 12
5 4 5 8 9 10 8 9 11 9 4 4 5 5 5 5 5 6 7 8 8 9 7 5 4 5 5 6 6 4 4 6 6 7 7 12 13 14
5 7 8 9 9 8 9 10 8 5 4 5 6 6 5 5 5 4 5 6 7 8 8 8 6 5 5 6 6 5 5 5 6 5 5 6 7 7
5 6 9 9 7 7 7 6 5 5 5 6 5 5 4 4 4 4 4 4 4 5 6 8 8 6 6 6 7 7 6 5 4 5 6 6 8 8
4 3 3 3 4 4 4 5 4 4 5 4 5 5 4 4 4 3 4 4 4 5 5 3 5 6 6 6 7 7 6 6 5 5 5 7 6 7
6 4 5 5 5 5 5 5 4 5 5 5 5 5 5 5 5 4 4 4 5 6 5 4 3 3 4 4 7 7 6 6 5 5 5 7 8 6
6 5 6 6 6 6 5 5 5 5 5 5 5 5 5 5 5 5 5 5 5 5 5 4 3 4 6 7 4 5 5 5 5 5 5 6 8 7
4 5 6 6 5 5 5 5 5 4 4 5 5 5 5 5 5 6 5 6 5 5 5 4 4 5 6 6 5 5 7 6 5 6 6 6 6 9
5 5 5 5 5 5 5 5 5 5 5 5 5 5 5 5 5 5 5 7 6 5 6 6 5 6 4 3 4 5 4 7 7 6 5 5 6 5
5 5 5 5 5 5 5 4 5 5 5 5 5 5 5 5 6 6 6 5 5 5 6 5 4 3 3 5 6 6 6 5 7 9 9 8 5 4
5 5 4 4 4 4 4 5 5 5 5 5 5 5 5 5 5 5 5 5 5 5 4 4 4 3 4 5 5 6 6 6 5 5 5 8 10 11
Wind_Direction
180 176 180 184 173 223 208 191 197 254 264 248 256 271 292 288 294 288 279 284 284 281 282 286 287 287 288 290 293 293 292 294 296 298 299 297 295 292
181 184 193 202 187 199 218 236 226 226 254 246 240 268 300 296 288 283 278 282 281 279 278 280 281 283 282 284 286 287 288 289 291 292 295 292 291 290
201 199 202 202 195 209 227 236 246 237 256 278 274 269 274 288 295 288 284 280 276 279 279 280 281 282 279 280 282 282 283 286 287 289 292 290 289 290
209 207 206 205 205 214 221 232 241 241 245 269 281 276 269 273 282 288 289 283 276 279 278 278 279 278 278 278 279 279 280 281 283 286 288 288 288 287
206 217 216 204 222 227 226 233 243 252 246 257 273 279 281 277 280 282 282 283 281 280 282 282 280 279 279 280 280 279 278 278 280 283 285 285 286 286
210 218 222 214 219 222 234 238 242 247 248 252 266 277 279 274 268 276 287 281 281 284 281 279 280 281 281 280 278 279 278 277 278 281 282 285 287 288
221 225 226 225 229 230 234 233 236 244 249 253 263 272 273 271 268 268 279 288 281 271 270 274 275 275 276 278 279 277 277 277 279 280 282 285 287 287
227 233 233 235 241 247 248 247 241 241 242 250 260 261 266 266 269 270 277 285 286 271 261 278 271 270 270 268 275 279 279 278 278 280 283 285 287 287
228 231 243 239 246 241 253 259 261 260 254 248 252 256 261 260 262 272 271 271 272 269 275 281 273 272 272 274 280 281 280 279 278 281 284 286 287 287
231 230 233 237 238 239 242 250 255 259 257 253 248 254 258 256 248 256 266 278 279 270 250 273 279 276 283 273 274 277 281 283 285 286 286 287 288 287
241 236 235 236 244 246 246 249 260 265 266 261 260 263 267 270 270 271 272 279 283 278 249 252 273 286 282 273 267 271 279 284 287 289 290 290 289 288
252 246 244 244 247 248 243 240 252 262 261 266 266 270 268 268 267 254 248 261 275 277 245 235 271 294 294 277 272 276 282 287 289 291 293 294 294 294
249 250 248 250 251 252 253 247 254 263 260 257 263 266 265 260 260 255 250 248 258 264 251 244 270 272 267 287 292 281 277 282 287 289 291 292 292 292
248 248 247 254 257 259 260 258 265 273 263 257 259 260 258 256 258 257 257 255 254 258 255 245 253 258 270 280 283 283 283 281 280 281 282 289 290 287
251 253 259 259 261 263 259 261 265 258 249 253 255 256 250 250 257 266 267 267 270 267 261 256 248 248 252 265 275 278 288 282 270 271 275 278 279 284
259 259 263 263 260 255 258 258 248 243 243 246 252 257 256 254 256 257 264 270 277 278 264 258 250 244 258 261 266 274 271 267 274 279 281 281 279 274
260 260 253 254 248 249 251 249 243 244 251 247 251 259 260 258 258 251 254 261 264 274 279 275 262 256 254 256 267 265 267 270 268 275 283 286 280 272
267 249 246 243 243 245 247 249 243 241 242 242 246 248 254 257 260 258 253 254 261 265 267 268 272 289 289 272 247 257 262 267 274 275 276 283 286 279
260 244 243 241 242 242 242 243 247 243 239 239 244 247 247 251 254 256 252 250 255 261 261 258 259 268 284 290 276 240 256 274 278 278 272 272 281 284
245 242 244 242 240 241 241 245 247 244 240 241 243 242 240 244 249 252 251 249 255 261 264 258 252 253 261 274 280 283 272 266 270 275 280 282 279 284
253 251 247 245 243 240 240 242 243 243 241 240 242 242 240 242 250 251 251 254 257 258 261 262 258 263 265 271 279 280 278 270 265 271 279 286 290 290
254 253 252 248 245 242 240 240 243 244 242 242 242 241 239 241 247 250 250 252 255 256 265 270 268 268 261 265 275 282 291 299 292 285 277 266 270 272
256 255 254 251 249 247 244 244 246 248 244 242 241 240 239 242 246 249 248 249 253 254 261 271 270 265 265 266 273 282 287 295 303 307 297 287 277 276
Height
1517 1517 1518 1519 1520 1520 1520 1521 1521 1519 1518 1518 1519 1519 1519 1518 1518 1517 1517 1516 1516 1515 1514 1513 1512 1511 1510 1509 1508 1506 1505 1504 1503 1502 1500 1499 1498 1497
1513 1513 1514 1514 1515 1516 1517 1517 1517 1516 1514 1513 1514 1514 1514 1514 1513 1513 1512 1511 1511 1510 1509 1508 1507 1506 1505 1504 1502 1501 1500 1499 1497 1496 1495 1494 1492 1492
1509 1509 1509 1510 1511 1511 1512 1513 1513 1513 1511 1509 1510 1509 1509 1509 1508 1507 1506 1506 1505 1504 1504 1503 1501 1500 1499 1498 1497 1495 1494 1493 1492 1490 1489 1488 1487 1486
1505 1505 1505 1506 1506 1507 1508 1508 1508 1508 1507 1505 1504 1504 1504 1504 1503 1502 1501 1500 1500 1499 1498 1497 1496 1495 1493 1492 1490 1489 1488 1487 1485 1484 1483 1482 1481 1480
1500 1501 1501 1502 1502 1502 1503 1503 1503 1503 1503 1502 1500 1499 1499 1499 1498 1497 1496 1494 1494 1493 1492 1491 1490 1489 1487 1486 1485 1483 1482 1480 1479 1478 1476 1475 1474 1473
1496 1497 1497 1497 1497 1498 1498 1498 1498 1498 1498 1497 1495 1494 1494 1494 1493 1491 1490 1489 1488 1487 1486 1485 1484 1483 1481 1480 1479 1477 1475 1474 1473 1471 1470 1469 1468 1466
1491 1492 1492 1493 1493 1493 1493 1493 1493 1493 1493 1492 1490 1489 1489 1488 1488 1486 1485 1483 1481 1481 1480 1478 1477 1476 1475 1473 1472 1470 1469 1468 1466 1465 1464 1463 1461 1460
1486 1486 1487 1487 1488 1488 1488 1488 1489 1488 1487 1487 1485 1484 1483 1483 1483 1482 1480 1477 1475 1476 1474 1472 1472 1469 1468 1467 1466 1464 1463 1461 1460 1459 1457 1456 1455 1454
1481 1481 1481 1482 1482 1482 1482 1482 1482 1482 1483 1482 1480 1479 1478 1478 1478 1476 1474 1472 1470 1469 1468 1465 1465 1463 1462 1461 1460 1458 1457 1455 1453 1452 1451 1450 1448 1447
1476 1476 1476 1476 1477 1477 1476 1476 1476 1476 1476 1476 1475 1474 1473 1473 1472 1471 1469 1466 1464 1463 1463 1460 1458 1457 1455 1454 1453 1452 1451 1449 1447 1446 1444 1443 1442 1440
1471 1471 1471 1471 1471 1472 1471 1471 1470 1470 1470 1470 1469 1468 1467 1467 1466 1465 1463 1461 1458 1456 1456 1455 1452 1450 1448 1447 1446 1446 1444 1443 1441 1439 1438 1436 1435 1433
1465 1465 1465 1465 1466 1466 1466 1465 1464 1463 1463 1463 1462 1461 1461 1460 1460 1459 1457 1455 1453 1450 1450 1449 1447 1445 1441 1440 1440 1439 1438 1436 1435 1433 1431 1430 1428 1427
1459 1459 1459 1460 1460 1460 1460 1459 1458 1458 1457 1456 1455 1454 1454 1453 1453 1452 1451 1450 1448 1446 1445 1444 1442 1440 1439 1435 1433 1433 1432 1430 1428 1426 1425 1423 1422 1421
1454 1454 1454 1454 1454 1454 1454 1453 1453 1452 1451 1450 1449 1448 1447 1447 1446 1446 1445 1444 1442 1441 1440 1439 1437 1435 1433 1430 1427 1426 1426 1424 1422 1420 1419 1417 1416 1415
1448 1448 1449 1448 1448 1448 1447 1447 1446 1445 1444 1444 1443 1442 1442 1441 1440 1439 1438 1437 1436 1435 1434 1433 1432 1430 1428 1426 1423 1420 1419 1417 1416 1415 1413 1412 1410 1409
1443 1443 1443 1442 1442 1441 1441 1440 1440 1439 1439 1438 1437 1436 1435 1435 1434 1433 1432 1430 1429 1428 1428 1427 1426 1424 1422 1420 1418 1415 1414 1412 1410 1409 1407 1406 1405 1403
1437 1437 1436 1436 1435 1435 1434 1434 1433 1433 1433 1432 1431 1430 1429 1428 1428 1427 1426 1425 1423 1421 1420 1420 1419 1418 1416 1415 1412 1410 1409 1407 1406 1404 1402 1399 1399 1398
1432 1430 1430 1429 1429 1428 1428 1427 1427 1426 1426 1425 1425 1424 1423 1422 1422 1421 1420 1419 1418 1416 1415 1414 1413 1412 1410 1408 1408 1405 1404 1402 1401 1399 1397 1394 1392 1392
1425 1424 1424 1423 1423 1422 1422 1421 1421 1420 1420 1419 1418 1418 1417 1417 1416 1415 1414 1413 1412 1411 1410 1410 1409 1407 1405 1402 1401 1402 1400 1397 1395 1394 1392 1390 1387 1385
1419 1418 1418 1417 1417 1417 1416 1416 1415 1414 1414 1413 1412 1412 1411 1411 1410 1409 1408 1408 1407 1406 1405 1404 1404 1403 1401 1399 1396 1395 1395 1393 1391 1388 1387 1385 1383 1381
1413 1413 1412 1412 1412 1411 1411 1410 1409 1408 1408 1407 1406 1406 1405 1405 1404 1404 1403 1402 1402 1401 1400 1399 1399 1399 1397 1395 1392 1389 1389 1389 1387 1384 1382 1380 1377 1375
1408 1408 1407 1407 1406 1406 1405 1404 1404 1403 1402 1402 1401 1400 1400 1400 1399 1398 1398 1397 1397 1396 1395 1394 1394 1393 1392 1390 1387 1385 1384 1383 1382 1380 1378 1377 1374 1371
1403 1402 1402 1401 1401 1400 1400 1399 1398 1397 1397 1396 1396 1395 1395 1394 1394 1394 1393 1393 1392 1391 1391 1389 1389 1388 1387 1385 1384 1382 1380 1378 1376 1374 1374 1372 1371 1369